Showing default

COSMOS 1953, 19210

Orbit data source: Space-Track

COSMOS 1953, 19210 is a payload satellite owned by GRU (CIS) in LEO that was launched on Tue, 14 Jun 1988 UTC via a TSIKLON-3 launch vehicle from the Plesetsk Missile And Space Complex (PKMTR). Payload-class satellites include a variety of spacecraft equipped with specific instruments for various scientific and technological missions. These include communications satellites like Starlink; space stations such as the ISS; scientific satellites like the Hubble; Earth observation satellites from companies like Planet Labs, Umbra, and HawkEye 360; GPS; miniature CubeSats for education and research; and military/defense satellites.

Loading next visibility...
Identifier
19210, 1988-050A
Orbit
LEO
Country
Flag of CISCIS
Related business
Manufacturer
Yuzhnoe
Mission
Defense Sigint
Bus & Motor
TSELINA-D, Unknown motor
Mass
1,750 kg wet, 1,750 kg dry
Launch date (UTC)
1988-06-14 (37 years ago)
Launch vehicle
TSIKLON-3
Launch site
Plesetsk Missile And Space Complex (PKMTR)
Object type
Payload
Rocket body
Debris
Shape & HBR
Cyl + 2 Pan, 6.5 m
Radar Cross Section
8.068 m², Large (>1 m²)

Expand to show TLE details & history
Last TLE update: 6 hours ago

TLE from 6 hours ago
0 COSMOS 1953
1 19210U 88050A   25291.96855672  .00015113  00000-0  58449-3 0  9995
2 19210  82.5064 300.5149 0010003 260.3829  99.6280 15.26053522 16154
Epoch: 2025-10-18T23:14Z
TLE epoch observation values (Epoch: 2025-10-18T23:14:43.300Z)
Latitude
0.00005°
Longitude
-75.85747°
Altitude
491.875 km
Speed
7.618 km/s
True Right ascension
20h 02m 03s
True Declination
0° 00' 00"
Sunlit
Object was in daylight at epoch
Visualization orbit readout
Latitude
Unknown
Longitude
Unknown
Altitude
Unknown
Speed
Unknown
Apparent Right ascension
Unknown
Apparent Declination
Unknown
Sunlit
N/A
Visualization observer readout
Local Sidereal Time
00:27:23
Azimuth
Unknown
Elevation
Unknown
Doppler factor
Unknown
Orbital elements
Apogee altitude
491.45 km
Perigee altitude
477.72 km
Semi-major axis
6,862.722 km
Eccentricity
0.001
Inclination
82.5064°
RAAN
300.5149°
Arg. of periapsis
260.3829°
True anomaly
99.74099°
Mean anomaly
99.628°
Eccentric anomaly
99.6845°
Mean motion
3.81767 °/min
Orbital period
94.3 mins
BSTAR
0.00058449
Loading maneuver chart data...
Computing Atmospheric mass density...
Loading historical data...
Loading historical data...
Loading historical data...
Loading historical data...
Loading historical data...
Loading historical data...
Loading historical data...
Other satellites on launch #50 in the year 1988 (1988-06-14 UTC)

Documentation

Showing up to 5 results
|